Вернуться в каталог

STARLINK-30892

АктивенСвязьVLEO
NORAD 58366·PAYLOAD·🇺🇸 United States

Запущен Nov 18, 2023 с Cape Canaveral Space Force Station

Loading…

Ближайшие Пролёты (ближайшие 24 часа)

TLE

СвежийSource: CelesTrak SupGP

Эпоха: Sep 15, 2026, 03:24 UTC

1 58366C 23177R   26258.14215278 -.00002782  00000+0 -10077-3 0  2587
2 58366  43.0036   0.7238 0001939 258.0596  12.8927 15.27573456    18

Отслеживайте STARLINK-30892 в реальном времени с AllMySat

Download on the App Store